TVARMINN Weather Reports


time (UTC)temp
C
wind
direction
speed
KPH
gust
KPH
rain 1hr
cm
rain 24hr
cm
rain mn
cm
humidity
%
barometer
mb
20260508094732 10 0.0 0.0 0.00 0.00 0.00 52 1026.9
20260508092732 10 0.0 0.0 0.00 0.00 0.00 56 1026.9
20260508090732 10 0.0 0.0 0.00 0.00 0.00 56 1026.8
20260508084732 12 0.0 0.0 0.00 0.00 0.00 33 1026.9
20260508082731 11 0.0 0.0 0.00 0.00 0.00 35 1026.9
20260508080733 11 0.0 0.0 0.00 0.00 0.00 35 1026.8
20260508074732 11 0.0 0.0 0.00 0.00 0.00 37 1026.6
20260508072732 11 0.0 0.0 0.00 0.00 0.00 42 1026.5
20260508070732 10 0.0 0.0 0.00 0.00 0.00 39 1026.3
20260508064731 10 0.0 0.0 0.00 0.00 0.00 43 1026.2
20260508062731 8 0.0 0.0 0.00 0.00 0.00 48 1026.1
20260508060732 8 0.0 0.0 0.00 0.00 0.00 49 1026.1
20260508054732 7 0.0 0.0 0.00 0.00 0.00 52 1025.9
20260508052732 6 0.0 0.0 0.00 0.00 0.00 53 1025.7
20260508050731 6 0.0 0.0 0.00 0.00 0.00 55 1025.5
20260508044732 6 0.0 0.0 0.00 0.00 0.00 58 1025.3
20260508042731 5 0.0 0.0 0.00 0.00 0.00 59 1025.1
20260508040731 5 0.0 0.0 0.00 0.00 0.00 61 1024.8
20260508032731 3 0.0 0.0 0.00 0.00 0.00 64 1024.4
20260508030732 3 0.0 0.0 0.00 0.00 0.00 65 1024.3
20260508024730 3 0.0 0.0 0.00 0.00 0.00 67 1024.0
20260508022730 3 0.0 0.0 0.00 0.00 0.00 64 1023.6
20260508020731 4 0.0 0.0 0.00 0.00 0.00 63 1023.4
20260508014731 4 0.0 0.0 0.00 0.00 0.00 63 1023.2
20260508012731 4 0.0 0.0 0.00 0.00 0.00 64 1022.9
20260508010731 4 0.0 0.0 0.00 0.00 0.00 61 1022.7
20260508004731 5 0.0 0.0 0.00 0.00 0.00 59 1022.5
20260508002731 4 0.0 0.0 0.00 0.00 0.00 62 1022.3
20260508000732 5 0.0 0.0 0.00 0.00 0.00 60 1021.9
20260507234731 5 0.0 0.0 0.00 0.00 0.00 56 1021.8
20260507232730 5 0.0 0.0 0.00 0.00 0.00 54 1021.5
20260507230731 6 0.0 0.0 0.00 0.00 0.00 51 1021.3
20260507224729 6 0.0 0.0 0.00 0.00 0.00 49 1021.1
20260507222731 6 0.0 0.0 0.00 0.00 0.00 46 1020.9
20260507220730 6 0.0 0.0 0.00 0.00 0.00 47 1020.7
20260507214731 5 0.0 0.0 0.00 0.00 0.00 56 1020.5
20260507212729 6 0.0 0.0 0.00 0.00 0.00 52 1020.2
20260507210730 6 0.0 0.0 0.00 0.00 0.00 47 1020.0
20260507204731 7 0.0 0.0 0.00 0.00 0.00 46 1019.6
20260507202730 8 0.0 0.0 0.00 0.00 0.00 41 1019.4
20260507200731 8 0.0 0.0 0.00 0.00 0.00 38 1019.1
20260507194729 8 0.0 0.0 0.00 0.00 0.00 39 1018.8
20260507192729 8 0.0 0.0 0.00 0.00 0.00 37 1018.4
20260507190729 9 0.0 0.0 0.00 0.00 0.00 36 1018.0
20260507184730 10 0.0 0.0 0.00 0.00 0.00 32 1017.9
20260507182728 10 0.0 0.0 0.00 0.00 0.00 31 1017.6
20260507180728 10 0.0 0.0 0.00 0.00 0.00 32 1017.3
20260507174729 10 0.0 0.0 0.00 0.00 0.00 33 1017.2
20260507172728 11 0.0 0.0 0.00 0.00 0.00 31 1017.0
20260507170728 11 0.0 0.0 0.00 0.00 0.00 35 1016.9
20260507164729 10 0.0 0.0 0.00 0.00 0.00 50 1016.9
20260507162729 10 0.0 0.0 0.00 0.00 0.00 50 1016.9
20260507160729 10 0.0 0.0 0.00 0.00 0.00 44 1016.9
20260507154728 11 0.0 0.0 0.00 0.00 0.00 39 1016.8
20260507152728 11 0.0 0.0 0.00 0.00 0.00 32 1016.8
20260507150730 11 0.0 0.0 0.00 0.00 0.00 37 1016.8
20260507144730 11 0.0 0.0 0.00 0.00 0.00 39 1016.7
20260507142730 11 0.0 0.0 0.00 0.00 0.00 40 1016.7
20260507140729 11 0.0 0.0 0.00 0.00 0.00 38 1016.6
20260507134729 11 0.0 0.0 0.00 0.00 0.00 46 1016.5
20260507132728 10 0.0 0.0 0.00 0.00 0.00 48 1016.5
20260507130729 11 0.0 0.0 0.00 0.00 0.00 50 1016.5
20260507124728 10 0.0 0.0 0.00 0.00 0.00 56 1016.5
20260507122727 10 0.0 0.0 0.00 0.00 0.00 53 1016.5
20260507120729 9 0.0 0.0 0.00 0.00 0.00 52 1016.5
20260507114729 9 0.0 0.0 0.00 0.00 0.00 51 1016.4
20260507112727 9 0.0 0.0 0.00 0.00 0.00 53 1016.4
20260507110727 9 0.0 0.0 0.00 0.00 0.00 57 1016.4
20260507104727 8 0.0 0.0 0.00 0.00 0.00 64 1016.3
20260507102727 8 0.0 0.0 0.00 0.00 0.00 64 1016.2
20260507100727 8 0.0 0.0 0.00 0.00 0.00 62 1016.1